Location: Buckenweiler
(49.0667°N, 10.2500°E)
Time: 20:27:33
(UTC+00:00)

Cosmos 2181 Rocket - Pass Details

Date: 18 January 2026
Orbit: 952 x 1013 km, 82.9° (Epoch: 14 February)

Event Time Altitude Azimuth Distance (km) Brightness Sun altitude
Rises 04:46:30 0° 346° (NNW) 3,724 6.9 -22.3°
Reaches altitude 10° 04:49:06 10° 341° (NNW) 2,779 6.1 -21.9°
Maximum altitude 04:55:11 49° 270° (W) 1,288 4.2 -20.9°
Drops below altitude 10° 05:01:18 10° 198° (SSW) 2,786 6.3 -19.9°
Sets 05:03:54 0° 192° (SSW) 3,734 7.0 -19.5°
